Overview Statistics Trail Chart Weather Telemetry Raw packets
 

This is the latest recevied weather packets stored in our database for station/object N1ORT. If no packets are shown the sender has not sent any weather packets the latest 10 day(s).

<< 7 8 9 10 11 12 13 >>
Time Temp. Humidity Pressure Rain* Wind** Luminosity Snow
1788569861 18.89° C 89% 1008.3 hPa 0 mm - 0 W/m² -
1788569557 19.44° C 88% 1007.9 hPa 0 mm - 0 W/m² -
1788569256 19.44° C 89% 1008.3 hPa 0 mm - 0 W/m² -
1788568951 19.44° C 87% 1008.4 hPa 0 mm - 0 W/m² -
1788568651 19.44° C 87% 1008 hPa 0 mm - 0 W/m² -
1788568347 19.44° C 88% 1008.3 hPa 0 mm - 0 W/m² -
1788568043 19.44° C 86% 1008.2 hPa 0 mm - 0 W/m² -
1788567743 19.44° C 87% 1008.2 hPa 0 mm - 0 W/m² -
1788567438 19.44° C 89% 1008.2 hPa 0 mm - 0 W/m² -
1788567137 20° C 89% 1008.1 hPa 0 mm - 0 W/m² -
1788566832 20° C 83% 1008.1 hPa 0 mm - 0 W/m² -
1788566528 20.56° C 86% 1008 hPa 0 mm - 0 W/m² -
1788566228 20.56° C 84% 1008.1 hPa 0 mm - 0 W/m² -
1788565922 20.56° C 84% 1007.9 hPa 0 mm - 0 W/m² -
1788565617 21.11° C 85% 1007.8 hPa 0 mm - 0 W/m² -
1788565313 21.11° C 80% 1007.7 hPa 0 mm - 0 W/m² -
1788565008 21.11° C 79% 1007.6 hPa 0 mm - 0 W/m² -
1788564704 21.67° C 78% 1007.7 hPa 0 mm - 0 W/m² -
1788564401 21.67° C 77% 1007.5 hPa 0 mm - 0 W/m² -
1788564097 22.22° C 78% 1007.6 hPa 0 mm - 1 W/m² -
1788563792 22.22° C 77% 1007.4 hPa 0 mm - 2 W/m² -
1788563487 22.22° C 74% 1007.4 hPa 0 mm - 2 W/m² -
1788563187 22.78° C 76% 1007.4 hPa 0 mm - 4 W/m² -
1788562883 22.78° C 73% 1007.7 hPa 0 mm - 6 W/m² -
1788562580 22.78° C 75% 1007.8 hPa 0 mm - 8 W/m² -

* Rain latest hour (hover to see other rain measurements)
** Current wind speed in m/s (hover to see current wind gust speed)